Simultaneous Nadir Overpasses (SNOs) Predictions

Prediction of SNOs between AQUA and GOES-15 Satellite Orbit:

Table of predicted SNOs for the next 14.0 days since TLE Epoch: 3/27/2020
Index Date Time (AQUA) AQUA Lat,Lon GOES-15 Lat,Lon Distance(km) Time Diff (sec)
1 03/28/2020 21:58:26 0.73,-125.76 0.28,-127.99 253.82 80
2 03/29/2020 10:19:41 0.36,-130.92 -0.27,-127.96 336.72 80
3 03/31/2020 10:07:30 -0.27,-127.96 -0.27,-127.88 8.73 80
4 04/02/2020 09:55:19 -0.85,-125.00 -0.26,-127.81 319.38 80
5 04/02/2020 22:16:42 -0.24,-130.19 0.24,-127.81 270.46 80
6 04/04/2020 22:04:30 0.34,-127.22 0.24,-127.72 56.81 80
7 04/06/2020 21:52:19 0.99,-124.27 0.24,-127.64 383.74 80
8 04/07/2020 10:13:34 0.16,-129.42 -0.22,-127.60 206.54 80
9 04/09/2020 10:01:22 -0.43,-126.45 -0.23,-127.51 119.74 80
10 04/09/2020 22:22:46 -0.66,-131.65 0.21,-127.50 471.24 80




NCC Satellite Simultaneous Nadir Overpasses (SNOs) Prediction Service
